Regional Weather Roundup
Issued by NWS Mobile, AL

Home | Current Version | Previous Version | Text Only | Print | Product List | Glossary On
Versions: 1 2 3 4 5 6 7 8 9 10 11 12 13 14 15 16 17 18 19 20 21 22 23 24 25 26 27 28 29 30 31 32 33 34 35 36 37 38 39 40 41 42 43 44 45 46 47 48 49 50
000
ASUS44 KMOB 230712
RWRMOB
REGIONAL WEATHER ROUNDUP
NATIONAL WEATHER SERVICE MOBILE AL
100 AM CST FRI FEB 23 2018

NOTE: "FAIR" INDICATES FEW OR NO CLOUDS BELOW 12,000 FEET WITH NO
      SIGNIFICANT WEATHER AND/OR OBSTRUCTIONS TO VISIBILITY.

  * THESE STATIONS ARE PART OF THE UNIVERSITY OF SOUTH ALABAMA
    MESONET AND ARE NOT UNDER NWS OR FAA QUALITY CONTROL.

ALZ061>064-230800-
COASTAL ALABAMA

CITY           SKY/WX    TMP DP  RH WIND       PRES   REMARKS
MOBILE REG APT CLOUDY    68  66  93 SE5       30.33F
BROOKLEY FIELD FOG       65  65 100 CALM      30.33F VSB 3/4
USA CAMPUS*    NOT AVBL
DOG RIVER*     NOT AVBL


CITY           SKY/WX    TMP DP  RH WIND       PRES   REMARKS
GULF SHORES    FAIR      64  64 100 SE5       30.32F FOG

$$

ALZ051>060-230800-
INTERIOR SOUTHWEST AND SOUTH CENTRAL ALABAMA

CITY           SKY/WX    TMP DP  RH WIND       PRES   REMARKS
GREENVILLE     FAIR      63  59  87 CALM      30.34F
EVERGREEN      FAIR      61  58  90 CALM      30.34F
ATMORE*          N/A    N/A N/A N/A S3        31.15F
ANDALUSIA/OPP  FAIR      63  59  87 CALM      30.34S
ANDALUSIA*     NOT AVBL
FLORALA APT    FAIR      61  59  93 CALM      30.37R
FLORALA*         N/A     61  59  94 CALM      31.13S

$$

FLZ001>006-230800-
WESTERN FLORIDA PANHANDLE

CITY           SKY/WX    TMP DP  RH WIND       PRES   REMARKS
PENSACOLA      FAIR      69  66  90 SE5       30.32S
NAS PENSACOLA  NOT AVBL
MILTON         FOG       66  66 100 CALM      30.33S VSB 1/4
WHTNG S FIELD  FOG       66  66 100 CALM      30.33S VSB 1/4


CITY           SKY/WX    TMP DP  RH WIND       PRES   REMARKS
JAY*           NOT AVBL
DUKE FIELD     FOG       57  57 100 CALM      30.33S VSB 5/8
CRESTVIEW      FOG       59  58  96 CALM      30.35S VSB 1/2
VALPARAISO     CLEAR     66  65  99 N3        30.32S
DESTIN         FAIR      68  64  87 CALM      30.33S

$$

MSZ076-079-230800-
INTERIOR SOUTHEAST MISSISSIPPI

CITY           SKY/WX    TMP DP  RH WIND       PRES   REMARKS
LEAKESVILLE*     N/A     66  66 100 S2        30.33S
AGRICOLA*        N/A     66  64  94 CALM      30.31F

$$

MARINE OBSERVATIONS

STATION/POSITION TIME  TEMP    WIND        PRES    WAVE
                       AIR SEA DIR/SP/G            HT/PER
                 (UTC) (F)     (DEG/KT/KT) (MB)    (FT/S)
PETIT BOIS ISLND 0648   69     130/  7/  8 1027.1F
KATRINA CUT      0630          120/  6     1026.8F
CEDAR POINT      0630   68     140/  4     1026.8F
E DAUPHIN ISLAND 0700   69     130/  6/  7 1026.3F
MIDDLE BAY LIGHT 0630   69     140/  9     1026.8F
USCG MOBILE BAY  0648   67 68   CALM  /  2 1026.9F
STATE DOCKS      0648   67 62              1026.8F
MEAHER PARK      0630   67     100/  3     1026.8F
WEEKS BAY        0545   68                 1027.0S
FORT MORGAN      0648   69     150/ 10/ 11   N/A
12 S ORANGE BCH  NOT AVBL
PENSACOLA BAY    0648   71 74  170/  5/  7 1027.0F
64 S DAUPHIN ISL 0650      75  110/ 14/ 16 1026.0F   5/ 8
67 S FORT MORGAN 0630   72                 1025.7F

$$

SELECTED LOCATIONS ACROSS THE REGION

CITY           SKY/WX    TMP DP  RH WIND       PRES   REMARKS
NEW ORLEANS    FAIR      72  70  93 SE8       30.28F
GULFPORT       MOCLDY    70  69  97 SE6       30.30S
PASCAGOULA AP  FOG       66  63  90 CALM      30.31F VSB 3/4
PASCAGOULA*      N/A     54  54 100 S5          N/A
HATTIESBURG    MOCLDY    67  67 100 S6        30.33S
LAUREL         FAIR      64  64 100 SE3       30.33S
MERIDIAN       FAIR      65  62  90 S5        30.33R
JACKSON        FAIR      68  65  90 SE8       30.29S
MONTGOMERY     FAIR      65  62  90 CALM      30.35F
TROY           FAIR      60  59  96 CALM      30.36F
ASHFORD*       NOT AVBL
DOTHAN         FAIR      62  58  86 CALM      30.38F
PANAMA CITY    FAIR      61  60  97 CALM      30.32F

$$




USA.gov is the U.S. government's official web portal to all federal, state and local government web resources and services.